| time (UTC) | temp F | wind direction | speed MPH | gust MPH | rain 1hr in | rain 24hr in | rain mn in | humidity % | barometer mb |
| 20260505073003 | 42 | 41 | 3.0 | 4.0 | 0.00 | 0.01 | 0.01 | 87 | 1023.5 |
| 20260505072503 | 42 | 39 | 3.0 | 5.0 | 0.00 | 0.01 | 0.01 | 87 | 1023.4 |
| 20260505072003 | 42 | 38 | 3.0 | 5.0 | 0.00 | 0.01 | 0.01 | 87 | 1023.4 |
| 20260505071503 | 42 | 37 | 2.0 | 5.0 | 0.00 | 0.01 | 0.01 | 88 | 1023.5 |
| 20260505071003 | 43 | 42 | 2.0 | 4.0 | 0.00 | 0.01 | 0.01 | 87 | 1023.6 |
| 20260505070503 | 43 | 54 | 2.0 | 4.0 | 0.00 | 0.01 | 0.01 | 87 | 1023.5 |
| 20260505070003 | 43 | 51 | 3.0 | 4.0 | 0.00 | 0.01 | 0.01 | 87 | 1023.6 |
| 20260505065503 | 43 | 37 | 3.0 | 5.0 | 0.00 | 0.01 | 0.01 | 87 | 1023.5 |
| 20260505065003 | 43 | 40 | 3.0 | 5.0 | 0.00 | 0.01 | 0.01 | 87 | 1023.5 |
| 20260505064503 | 43 | 45 | 3.0 | 5.0 | 0.00 | 0.01 | 0.01 | 87 | 1023.5 |
| 20260505064003 | 43 | 48 | 2.0 | 5.0 | 0.00 | 0.01 | 0.01 | 87 | 1023.5 |
| 20260505063503 | 43 | 64 | 2.0 | 5.0 | 0.00 | 0.01 | 0.01 | 87 | 1023.5 |
| 20260505063003 | 43 | 79 | 1.0 | 3.0 | 0.00 | 0.01 | 0.01 | 87 | 1023.4 |
| 20260505062503 | 43 | 79 | 2.0 | 3.0 | 0.00 | 0.01 | 0.01 | 87 | 1023.5 |
| 20260505062003 | 44 | 79 | 2.0 | 4.0 | 0.00 | 0.01 | 0.01 | 87 | 1023.5 |
| 20260505061503 | 44 | 79 | 2.0 | 4.0 | 0.00 | 0.01 | 0.01 | 87 | 1023.6 |
| 20260505061003 | 44 | 78 | 3.0 | 4.0 | 0.00 | 0.01 | 0.01 | 87 | 1023.6 |
| 20260505060524 | 44 | 75 | 2.0 | 5.0 | 0.00 | 0.01 | 0.01 | 87 | 1023.5 |
| 20260505060003 | 44 | 68 | 2.0 | 5.0 | 0.00 | 0.01 | 0.01 | 87 | 1023.5 |
| 20260505055503 | 44 | 63 | 2.0 | 5.0 | 0.00 | 0.01 | 0.01 | 87 | 1023.6 |
| 20260505055003 | 44 | 72 | 3.0 | 5.0 | 0.00 | 0.01 | 0.01 | 87 | 1023.6 |
| 20260505054503 | 44 | 81 | 3.0 | 6.0 | 0.00 | 0.01 | 0.01 | 87 | 1023.6 |
| 20260505054003 | 44 | 71 | 3.0 | 6.0 | 0.00 | 0.01 | 0.01 | 87 | 1023.6 |
| 20260505053503 | 45 | 64 | 3.0 | 5.0 | 0.00 | 0.01 | 0.01 | 87 | 1023.7 |
| 20260505053024 | 45 | 66 | 3.0 | 5.0 | 0.00 | 0.01 | 0.01 | 87 | 1023.6 |
| 20260505052503 | 45 | 68 | 3.0 | 5.0 | 0.00 | 0.01 | 0.01 | 87 | 1023.6 |
| 20260505052003 | 45 | 72 | 2.0 | 5.0 | 0.00 | 0.01 | 0.01 | 87 | 1023.6 |
| 20260505051503 | 45 | 81 | 2.0 | 5.0 | 0.00 | 0.01 | 0.01 | 87 | 1023.6 |
| 20260505051003 | 45 | 90 | 2.0 | 4.0 | 0.00 | 0.01 | 0.01 | 87 | 1023.7 |
| 20260505050503 | 45 | 85 | 2.0 | 6.0 | 0.00 | 0.01 | 0.01 | 87 | 1023.7 |
| 20260505041503 | 47 | 90 | 2.0 | 4.0 | 0.00 | 0.01 | 0.01 | 86 | 1024.0 |
| 20260505041003 | 47 | 95 | 2.0 | 6.0 | 0.00 | 0.01 | 0.01 | 86 | 1024.0 |
| 20260505040503 | 47 | 99 | 2.0 | 6.0 | 0.00 | 0.01 | 0.01 | 86 | 1023.9 |
| 20260505040004 | 47 | 94 | 2.0 | 6.0 | 0.00 | 0.01 | 0.01 | 86 | 1023.9 |
| 20260505035503 | 47 | 105 | 3.0 | 6.0 | 0.00 | 0.01 | 0.01 | 86 | 1023.9 |
| 20260505035024 | 47 | 111 | 3.0 | 6.0 | 0.00 | 0.01 | 0.01 | 86 | 1023.8 |
| 20260505034503 | 48 | 114 | 4.0 | 8.0 | 0.00 | 0.01 | 0.01 | 86 | 1023.9 |
| 20260505034003 | 48 | 114 | 3.0 | 8.0 | 0.00 | 0.01 | 0.01 | 86 | 1023.8 |
| 20260505033503 | 48 | 107 | 3.0 | 7.0 | 0.00 | 0.01 | 0.01 | 85 | 1023.9 |
| 20260505033003 | 49 | 94 | 3.0 | 7.0 | 0.00 | 0.01 | 0.01 | 85 | 1023.9 |
| 20260505032524 | 50 | 93 | 3.0 | 7.0 | 0.00 | 0.01 | 0.01 | 85 | 1023.9 |
| 20260505032003 | 50 | 97 | 3.0 | 6.0 | 0.00 | 0.01 | 0.01 | 84 | 1024.0 |
| 20260505031503 | 50 | 97 | 3.0 | 7.0 | 0.00 | 0.01 | 0.01 | 85 | 1024.0 |
| 20260505031003 | 50 | 101 | 3.0 | 7.0 | 0.00 | 0.01 | 0.01 | 84 | 1023.9 |
| 20260505030503 | 50 | 92 | 3.0 | 7.0 | 0.00 | 0.01 | 0.01 | 85 | 1024.0 |
| 20260505030024 | 50 | 95 | 3.0 | 5.0 | 0.00 | 0.01 | 0.01 | 85 | 1024.0 |
| 20260505025503 | 50 | 104 | 3.0 | 7.0 | 0.00 | 0.01 | 0.01 | 84 | 1024.1 |
| 20260505025004 | 50 | 95 | 3.0 | 7.0 | 0.00 | 0.01 | 0.01 | 85 | 1024.2 |
| 20260505024524 | 50 | 95 | 3.0 | 8.0 | 0.00 | 0.01 | 0.01 | 85 | 1024.2 |
| 20260505024004 | 50 | 102 | 3.0 | 8.0 | 0.00 | 0.01 | 0.01 | 85 | 1024.2 |
| 20260505023503 | 50 | 101 | 4.0 | 8.0 | 0.00 | 0.01 | 0.01 | 85 | 1024.3 |
| 20260505023003 | 50 | 85 | 4.0 | 8.0 | 0.00 | 0.01 | 0.01 | 85 | 1024.2 |
| 20260505022503 | 50 | 74 | 4.0 | 8.0 | 0.00 | 0.01 | 0.01 | 85 | 1024.3 |
| 20260505022003 | 50 | 74 | 3.0 | 8.0 | 0.00 | 0.01 | 0.01 | 86 | 1024.3 |
| 20260505021524 | 50 | 81 | 3.0 | 7.0 | 0.00 | 0.01 | 0.01 | 86 | 1024.4 |
| 20260505021003 | 49 | 87 | 4.0 | 7.0 | 0.00 | 0.01 | 0.01 | 86 | 1024.6 |
| 20260505020504 | 49 | 76 | 3.0 | 8.0 | 0.00 | 0.01 | 0.01 | 86 | 1024.7 |
| 20260505020004 | 49 | 79 | 3.0 | 8.0 | 0.00 | 0.01 | 0.01 | 86 | 1024.7 |
| 20260505015504 | 49 | 85 | 3.0 | 8.0 | 0.00 | 0.01 | 0.01 | 86 | 1024.9 |
| 20260505015003 | 49 | 82 | 3.0 | 8.0 | 0.00 | 0.01 | 0.01 | 86 | 1024.9 |
| 20260505014524 | 49 | 91 | 3.0 | 7.0 | 0.00 | 0.01 | 0.01 | 87 | 1025.0 |
| 20260505014003 | 49 | 85 | 3.0 | 7.0 | 0.00 | 0.01 | 0.01 | 87 | 1025.0 |
| 20260505013503 | 49 | 74 | 3.0 | 7.0 | 0.00 | 0.01 | 0.01 | 87 | 1025.1 |
| 20260505013003 | 49 | 91 | 2.0 | 7.0 | 0.00 | 0.01 | 0.01 | 87 | 1025.2 |
| 20260505012503 | 49 | 106 | 2.0 | 6.0 | 0.00 | 0.01 | 0.01 | 88 | 1025.3 |
| 20260505012024 | 48 | 90 | 2.0 | 6.0 | 0.00 | 0.01 | 0.01 | 88 | 1025.4 |
| 20260505011503 | 48 | 85 | 2.0 | 6.0 | 0.00 | 0.01 | 0.01 | 88 | 1025.5 |
| 20260505011003 | 47 | 95 | 3.0 | 5.0 | 0.00 | 0.01 | 0.01 | 88 | 1025.7 |
| 20260505010503 | 47 | 94 | 3.0 | 6.0 | 0.00 | 0.01 | 0.01 | 89 | 1025.7 |
| 20260505010004 | 48 | 102 | 2.0 | 6.0 | 0.00 | 0.01 | 0.01 | 89 | 1025.8 |
| 20260505005503 | 46 | 106 | 2.0 | 5.0 | 0.00 | 0.01 | 0.01 | 89 | 1025.9 |
| 20260505005004 | 46 | 99 | 2.0 | 4.0 | 0.00 | 0.01 | 0.01 | 89 | 1026.1 |
| 20260505004503 | 45 | 104 | 2.0 | 4.0 | 0.00 | 0.01 | 0.01 | 89 | 1026.1 |
| 20260505004024 | 45 | 116 | 2.0 | 4.0 | 0.00 | 0.01 | 0.01 | 89 | 1026.2 |
| 20260505003503 | 44 | 136 | 2.0 | 5.0 | 0.00 | 0.01 | 0.01 | 89 | 1026.5 |
| 20260505003003 | 45 | 151 | 2.0 | 4.0 | 0.00 | 0.01 | 0.01 | 89 | 1026.5 |
| 20260505002503 | 44 | 145 | 2.0 | 5.0 | 0.00 | 0.01 | 0.01 | 89 | 1026.5 |
| 20260505002003 | 44 | 131 | 2.0 | 5.0 | 0.00 | 0.01 | 0.01 | 89 | 1026.7 |
| 20260505001503 | 44 | 124 | 2.0 | 4.0 | 0.00 | 0.01 | 0.01 | 89 | 1026.8 |
| 20260505001003 | 44 | 125 | 2.0 | 3.0 | 0.00 | 0.01 | 0.01 | 89 | 1026.8 |
| 20260505000502 | 44 | 128 | 2.0 | 5.0 | 0.00 | 0.01 | 0.01 | 89 | 1026.9 |
| 20260505000003 | 44 | 115 | 2.0 | 7.0 | 0.00 | 0.01 | 0.01 | 89 | 1026.9 |
| 20260504235502 | 44 | 89 | 2.0 | 7.0 | 0.00 | 0.02 | 0.01 | 89 | 1027.0 |
| 20260504235002 | 43 | 77 | 2.0 | 4.0 | 0.00 | 0.02 | 0.01 | 89 | 1027.1 |
| 20260504234502 | 43 | 75 | 2.0 | 4.0 | 0.00 | 0.02 | 0.01 | 89 | 1027.2 |
| 20260504234002 | 42 | 73 | 2.0 | 5.0 | 0.00 | 0.02 | 0.01 | 89 | 1027.4 |
| 20260504233503 | 42 | 77 | 2.0 | 5.0 | 0.00 | 0.02 | 0.01 | 89 | 1027.4 |
| 20260504233002 | 42 | 94 | 2.0 | 5.0 | 0.00 | 0.02 | 0.01 | 89 | 1027.4 |
| 20260504232503 | 42 | 104 | 2.0 | 4.0 | 0.00 | 0.02 | 0.01 | 89 | 1027.5 |
| 20260504232002 | 42 | 97 | 2.0 | 4.0 | 0.00 | 0.02 | 0.01 | 89 | 1027.5 |
| 20260504231502 | 41 | 93 | 2.0 | 4.0 | 0.00 | 0.02 | 0.01 | 89 | 1027.6 |
| 20260504231002 | 42 | 93 | 2.0 | 6.0 | 0.00 | 0.02 | 0.01 | 89 | 1027.6 |
| 20260504230502 | 41 | 104 | 1.0 | 6.0 | 0.00 | 0.02 | 0.01 | 89 | 1027.5 |
| 20260504230024 | 41 | 125 | 1.0 | 4.0 | 0.00 | 0.02 | 0.01 | 89 | 1027.5 |
| 20260504225502 | 41 | 128 | 1.0 | 3.0 | 0.00 | 0.02 | 0.01 | 88 | 1027.5 |
| 20260504225003 | 41 | 128 | 2.0 | 3.0 | 0.00 | 0.02 | 0.01 | 88 | 1027.5 |
| 20260504224502 | 41 | 130 | 2.0 | 4.0 | 0.00 | 0.02 | 0.01 | 88 | 1027.5 |
| 20260504224002 | 42 | 129 | 2.0 | 4.0 | 0.00 | 0.02 | 0.01 | 89 | 1027.5 |
| 20260504223502 | 42 | 123 | 2.0 | 4.0 | 0.00 | 0.02 | 0.01 | 89 | 1027.5 |
| 20260504223002 | 41 | 123 | 2.0 | 3.0 | 0.00 | 0.02 | 0.01 | 88 | 1027.6 |
| 20260504222502 | 41 | 125 | 2.0 | 4.0 | 0.00 | 0.02 | 0.01 | 88 | 1027.7 |
| 20260504222003 | 42 | 123 | 2.0 | 4.0 | 0.00 | 0.02 | 0.01 | 89 | 1027.6 |
| 20260504221503 | 42 | 117 | 2.0 | 4.0 | 0.00 | 0.02 | 0.01 | 89 | 1027.6 |
| 20260504221023 | 42 | 113 | 1.0 | 4.0 | 0.00 | 0.02 | 0.01 | 89 | 1027.6 |
| 20260504220502 | 42 | 143 | 1.0 | 3.0 | 0.00 | 0.02 | 0.01 | 89 | 1027.7 |
| 20260504220003 | 42 | 204 | 1.0 | 3.0 | 0.00 | 0.02 | 0.01 | 89 | 1027.6 |
| 20260504215502 | 41 | 207 | 1.0 | 2.0 | 0.00 | 0.02 | 0.01 | 89 | 1027.7 |
| 20260504215002 | 41 | 207 | 1.0 | 2.0 | 0.00 | 0.02 | 0.01 | 89 | 1027.6 |
| 20260504214503 | 41 | 208 | 1.0 | 2.0 | 0.00 | 0.02 | 0.01 | 89 | 1027.7 |
| 20260504214023 | 39 | 223 | 1.0 | 4.0 | 0.00 | 0.02 | 0.01 | 89 | 1027.7 |
| 20260504213503 | 40 | 263 | 0.0 | 4.0 | 0.00 | 0.02 | 0.01 | 89 | 1027.8 |
| 20260504213002 | 39 | 329 | 0.0 | 2.0 | 0.00 | 0.02 | 0.01 | 89 | 1027.7 |
| 20260504212502 | 39 | 329 | 0.0 | 2.0 | 0.00 | 0.02 | 0.01 | 89 | 1027.8 |
| 20260504212002 | 36 | 329 | 0.0 | 1.0 | 0.00 | 0.02 | 0.01 | 89 | 1027.8 |
| 20260504211503 | 36 | 329 | 0.0 | 1.0 | 0.00 | 0.02 | 0.01 | 89 | 1027.9 |
| 20260504211002 | 36 | 329 | 0.0 | 2.0 | 0.00 | 0.02 | 0.01 | 89 | 1027.8 |
| 20260504210503 | 36 | 329 | 0.0 | 2.0 | 0.00 | 0.02 | 0.01 | 89 | 1027.8 |
| 20260504210003 | 35 | 329 | 0.0 | 1.0 | 0.00 | 0.02 | 0.01 | 89 | 1027.8 |
| 20260504205502 | 36 | 329 | 0.0 | 1.0 | 0.00 | 0.02 | 0.01 | 89 | 1027.8 |
| 20260504205023 | 34 | 329 | 0.0 | 1.0 | 0.00 | 0.02 | 0.01 | 89 | 1027.9 |
| 20260504204502 | 34 | 329 | 0.0 | 1.0 | 0.00 | 0.02 | 0.01 | 89 | 1028.0 |
| 20260504204003 | 33 | 329 | 0.0 | 1.0 | 0.00 | 0.02 | 0.01 | 89 | 1028.0 |
| 20260504203523 | 33 | 329 | 0.0 | 1.0 | 0.00 | 0.02 | 0.01 | 89 | 1028.0 |
| 20260504203002 | 32 | 329 | 0.0 | 1.0 | 0.00 | 0.02 | 0.01 | 89 | 1028.0 |
| 20260504202502 | 32 | 329 | 0.0 | 1.0 | 0.00 | 0.02 | 0.01 | 88 | 1028.0 |
| 20260504202002 | 31 | 329 | 0.0 | 1.0 | 0.00 | 0.02 | 0.01 | 89 | 1028.0 |
| 20260504201502 | 31 | 0 | 0.0 | 0.0 | 0.00 | 0.02 | 0.01 | 89 | 1028.0 |
| 20260504201002 | 31 | 329 | 0.0 | 1.0 | 0.00 | 0.02 | 0.01 | 88 | 1027.9 |
| 20260504200503 | 32 | 329 | 0.0 | 1.0 | 0.00 | 0.02 | 0.01 | 88 | 1027.9 |
| 20260504200003 | 32 | 329 | 0.0 | 1.0 | 0.00 | 0.02 | 0.01 | 88 | 1027.9 |
| 20260504195502 | 32 | 330 | 0.0 | 1.0 | 0.00 | 0.02 | 0.01 | 88 | 1027.8 |
| 20260504195003 | 32 | 330 | 1.0 | 1.0 | 0.00 | 0.02 | 0.01 | 88 | 1027.9 |
| 20260504194502 | 32 | 330 | 1.0 | 2.0 | 0.00 | 0.02 | 0.01 | 88 | 1027.8 |
| 20260504194003 | 32 | 329 | 1.0 | 3.0 | 0.00 | 0.02 | 0.01 | 88 | 1027.7 |
| 20260504193524 | 32 | 329 | 0.0 | 3.0 | 0.00 | 0.02 | 0.01 | 88 | 1027.7 |
| 20260504193024 | 32 | 329 | 0.0 | 2.0 | 0.00 | 0.02 | 0.01 | 88 | 1027.7 |
| 20260504192523 | 32 | 329 | 0.0 | 1.0 | 0.00 | 0.02 | 0.01 | 88 | 1027.7 |
| 20260504192003 | 32 | 329 | 1.0 | 2.0 | 0.00 | 0.02 | 0.01 | 88 | 1027.7 |
| 20260504191503 | 32 | 329 | 0.0 | 2.0 | 0.00 | 0.02 | 0.01 | 88 | 1027.7 |
| 20260504191002 | 32 | 329 | 0.0 | 2.0 | 0.00 | 0.02 | 0.01 | 88 | 1027.7 |
| 20260504190503 | 32 | 329 | 0.0 | 1.0 | 0.00 | 0.02 | 0.01 | 88 | 1027.7 |
| 20260504190002 | 32 | 329 | 0.0 | 1.0 | 0.00 | 0.02 | 0.01 | 88 | 1027.7 |
| 20260504185524 | 33 | 329 | 0.0 | 1.0 | 0.00 | 0.02 | 0.01 | 88 | 1027.7 |
| 20260504185002 | 33 | 329 | 0.0 | 1.0 | 0.00 | 0.02 | 0.01 | 88 | 1027.7 |
| 20260504184502 | 33 | 329 | 1.0 | 2.0 | 0.00 | 0.02 | 0.01 | 88 | 1027.6 |
| 20260504184003 | 33 | 330 | 1.0 | 2.0 | 0.00 | 0.02 | 0.01 | 88 | 1027.7 |
| 20260504183502 | 33 | 330 | 1.0 | 2.0 | 0.00 | 0.02 | 0.01 | 88 | 1027.7 |
| 20260504183003 | 33 | 330 | 1.0 | 3.0 | 0.00 | 0.02 | 0.01 | 88 | 1027.7 |
| 20260504182502 | 33 | 330 | 1.0 | 3.0 | 0.00 | 0.02 | 0.01 | 88 | 1027.7 |
| 20260504182023 | 34 | 330 | 1.0 | 3.0 | 0.00 | 0.02 | 0.01 | 88 | 1027.8 |
| 20260504181503 | 34 | 330 | 0.0 | 2.0 | 0.00 | 0.02 | 0.01 | 88 | 1027.8 |
| 20260504181003 | 34 | 330 | 0.0 | 2.0 | 0.00 | 0.02 | 0.01 | 88 | 1027.7 |
| 20260504180503 | 35 | 330 | 1.0 | 2.0 | 0.00 | 0.02 | 0.01 | 88 | 1027.7 |
| 20260504180024 | 35 | 330 | 1.0 | 2.0 | 0.00 | 0.02 | 0.01 | 88 | 1027.8 |
| 20260504175503 | 35 | 330 | 1.0 | 2.0 | 0.00 | 0.02 | 0.01 | 88 | 1027.8 |
| 20260504175003 | 36 | 330 | 1.0 | 2.0 | 0.00 | 0.02 | 0.01 | 88 | 1027.8 |
| 20260504174502 | 36 | 330 | 1.0 | 3.0 | 0.00 | 0.02 | 0.01 | 88 | 1027.9 |
| 20260504174003 | 36 | 330 | 2.0 | 3.0 | 0.00 | 0.02 | 0.01 | 88 | 1027.9 |
| 20260504173503 | 36 | 330 | 2.0 | 3.0 | 0.00 | 0.02 | 0.01 | 88 | 1027.9 |
| 20260504173003 | 37 | 330 | 2.0 | 3.0 | 0.00 | 0.02 | 0.01 | 88 | 1027.9 |
| 20260504172502 | 37 | 330 | 2.0 | 3.0 | 0.01 | 0.02 | 0.01 | 88 | 1027.9 |
| 20260504172003 | 37 | 330 | 2.0 | 3.0 | 0.01 | 0.02 | 0.01 | 88 | 1027.9 |
| 20260504171502 | 37 | 330 | 1.0 | 3.0 | 0.01 | 0.02 | 0.01 | 88 | 1027.9 |
| 20260504171024 | 37 | 330 | 1.0 | 3.0 | 0.01 | 0.02 | 0.01 | 88 | 1027.9 |
| 20260504170503 | 37 | 330 | 2.0 | 2.0 | 0.01 | 0.02 | 0.01 | 88 | 1027.9 |
| 20260504151024 | 37 | 336 | 1.0 | 3.0 | 0.00 | 0.02 | 0.00 | 88 | 1028.0 |
| 20260504150503 | 37 | 336 | 1.0 | 3.0 | 0.00 | 0.02 | 0.00 | 88 | 1028.0 |
| 20260504141002 | 41 | 356 | 1.0 | 2.0 | 0.00 | 0.02 | 0.00 | 88 | 1028.4 |
| 20260504140503 | 41 | 356 | 2.0 | 3.0 | 0.00 | 0.02 | 0.00 | 88 | 1028.4 |
| 20260504130503 | 41 | 357 | 1.0 | 2.0 | 0.00 | 0.02 | 0.00 | 87 | 1028.8 |
| 20260504110503 | 44 | 1 | 2.0 | 3.0 | 0.00 | 0.02 | 0.02 | 87 | 1029.3 |
| 20260504100503 | 46 | 334 | 1.0 | 4.0 | 0.00 | 0.02 | 0.02 | 87 | 1029.5 |
| 20260504082003 | 46 | 123 | 0.0 | 2.0 | 0.00 | 0.02 | 0.02 | 86 | 1029.5 |
| 20260504081503 | 46 | 123 | 0.0 | 2.0 | 0.00 | 0.02 | 0.02 | 86 | 1029.4 |
| 20260504081024 | 46 | 123 | 0.0 | 1.0 | 0.00 | 0.02 | 0.02 | 86 | 1029.4 |
| 20260504080503 | 46 | 123 | 0.0 | 1.0 | 0.00 | 0.02 | 0.02 | 86 | 1029.5 |